Fort Indiantown Gap, PA

2:32 PM EST on November 11, 2019 (GMT -0500)
Muir Army Air Field

Weather History for KMUI - August, 2019

Change the Weather History Date:

Saturday, August 24, 2019

  Actual Average Record
Temperature  
Mean Temperature 66 °F -  
Max Temperature 74 °F 80 °F 89 °F (2008)
Min Temperature 58 °F 64 °F 53 °F (2011)
Growing Degree Days 16 (Base 50)    
Moisture  
Dew Point 52 °F    
Average Humidity 60    
Maximum Humidity 78    
Minimum Humidity 39    
Precipitation  
Precipitation 0.00 in - - ()
Sea Level Pressure  
Sea Level Pressure 30.20 in    
Wind  
Wind Speed 6 mph (NNE)    
Max Wind Speed 10 mph    
Max Gust Speed 17 mph    
Visibility 10 miles    
Events      
Averages and records for this station are not official NWS values.
T = Trace of Precipitation, MM = Missing Value Source: NWS Daily Summary

Daily Weather History Graph

Daily Weather History Graph

Search for Another Location

Airport or City:

Astronomy

Aug. 24, 2019 Rise Set
Actual Time 6:25 AM EDT 7:51 PM EDT
Civil Twilight 5:57 AM EDT 8:19 PM EDT
Nautical Twilight 5:22 AM EDT 8:53 PM EDT
Astronomical Twilight 4:46 AM EDT 9:29 PM EDT
Moon 12:16 AM EDT (8/24) 3:04 PM EDT (8/24)
Length of Visible Light 14h 22m
Length of Day
13h 25m
Last Quarter, 39% of the Moon is Illuminated
Aug 24
Last Quarter
Aug 30
New
Sep 5
First Quarter
Sep 14
Full
Sep 21
Last Quarter

Hourly Weather History & Observations

Time (EDT) Temp. Dew Point Humidity Pressure Visibility Wind Dir Wind Speed Gust Speed Precip Events Conditions
12:56 AM 64.2 °F 53.1 °F 67% 30.14 in 10.0 mi North 8.1 mph - N/A   Clear
1:56 AM 63.7 °F 52.5 °F 67% 30.14 in 10.0 mi North 9.2 mph - N/A   Clear
2:56 AM 63.0 °F 51.8 °F 67% 30.13 in 10.0 mi North 10.4 mph 17.3 mph N/A   Clear
3:56 AM 62.1 °F 51.8 °F 69% 30.14 in 10.0 mi NNE 5.8 mph - N/A   Clear
4:56 AM 61.3 °F 51.4 °F 70% 30.15 in 10.0 mi North 8.1 mph - N/A   Clear
5:56 AM 58.3 °F 51.4 °F 78% 30.17 in 10.0 mi Calm Calm - N/A   Clear
6:56 AM 59.4 °F 51.4 °F 75% 30.21 in 10.0 mi NNE 4.6 mph - N/A   Clear
7:56 AM 62.4 °F 52.9 °F 71% 30.22 in 10.0 mi ENE 3.5 mph - N/A   Clear
8:56 AM 66.2 °F 53.2 °F 63% 30.22 in 10.0 mi NNE 3.5 mph - N/A   Clear
9:56 AM 69.8 °F 53.4 °F 56% 30.22 in 10.0 mi NE 3.5 mph - N/A   Clear
10:56 AM 72.0 °F 54.0 °F 53% 30.22 in 10.0 mi North 8.1 mph - N/A   Mostly Cloudy
11:56 AM 72.9 °F 52.0 °F 48% 30.22 in 10.0 mi NE 4.6 mph - N/A   Scattered Clouds
12:56 PM 72.3 °F 51.4 °F 48% 30.21 in 10.0 mi ENE 6.9 mph - N/A   Mostly Cloudy
1:56 PM 72.5 °F 49.3 °F 44% 30.21 in 10.0 mi NNE 4.6 mph - N/A   Overcast
2:56 PM 72.5 °F 49.3 °F 44% 30.19 in 10.0 mi North 6.9 mph - N/A   Overcast
3:56 PM 71.8 °F 48.7 °F 44% 30.20 in 10.0 mi NNE 4.6 mph - N/A   Overcast
4:56 PM 73.8 °F 47.3 °F 39% 30.19 in 10.0 mi South 3.5 mph - N/A   Scattered Clouds
5:56 PM 70.5 °F 50.9 °F 50% 30.20 in 10.0 mi North 4.6 mph - N/A   Clear
6:56 PM 68.0 °F 52.7 °F 58% 30.20 in 10.0 mi NNW 4.6 mph - N/A   Mostly Cloudy
7:56 PM 64.6 °F 52.5 °F 65% 30.21 in 10.0 mi North 3.5 mph - N/A   Clear
8:56 PM 62.2 °F 50.7 °F 66% 30.23 in 10.0 mi Calm Calm - N/A   Clear
9:56 PM 61.9 °F 53.4 °F 74% 30.25 in 10.0 mi Calm Calm - N/A   Mostly Cloudy
10:56 PM 62.4 °F 51.3 °F 67% 30.25 in 10.0 mi Calm Calm - N/A   Overcast
11:56 PM 61.9 °F 50.7 °F 67% 30.26 in 10.0 mi Calm Calm - N/A   Overcast